[[{"header":{"parameterUnit":"m.s-1","parameterCategory":1,"la1":30.2991,"la2":30.254,"lo1":-89.0895,"lo2":-89.0444,"dy":0.0017,"dx":0.0017,"nx":28,"ny":28,"refTime":"2024-10-11T03:00:00:Z","depth":0,"parameterNumber":2,"parameterNumberName":"U-component_of_WINDS"},"data":[0,0,0,0,0,0,0,0,0,0,0,0,0,0,0,0,0,0,0,0,0,0,0,0,0,0,0,0,0,0,0,0,0,0,0,0,0,0,0,0,0,0,0,0,0,0,0,0,0,0,0,0,0,0,0,0,0,0,1.7046,1.7048,0,1.7224,1.7226,1.7228,1.7222,1.7219,1.7217,1.7214,1.74,1.7407,1.7414,0,0,0,0,0,0,0,0,0,0,0,0,0,1.67,1.6706,1.7045,1.7048,1.705,1.7224,1.7227,1.7229,1.7222,1.7219,1.7216,1.7213,1.7397,1.7406,1.7415,0,0,0,0,0,0,0,0,0,0,0,0,0,1.6862,1.6709,1.7045,1.7067,1.7071,1.7224,1.7227,1.723,1.7223,1.7219,1.7215,1.7212,1.7394,1.7405,1.7416,1.7558,0,0,1.7449,1.7454,0,0,0,0,0,0,0,0,1.6853,1.6874,1.7062,1.7066,1.7071,1.7197,1.7173,1.734,1.7224,1.7165,1.7214,1.721,1.7335,1.7351,1.7393,1.7567,1.7575,1.745,1.7457,1.7461,1.7464,0,0,0,0,0,0,0,1.6841,1.6867,1.7116,1.7065,1.707,1.7069,1.7088,1.7204,1.7269,1.717,1.717,1.7191,1.7337,1.7382,1.7397,1.7578,1.745,1.7459,1.7466,1.747,1.7877,1.7881,0,0,0,0,0,0,1.6825,1.6857,1.7111,1.7122,1.695,1.7079,1.71,1.716,1.7268,1.7281,1.7194,1.719,1.7365,1.7384,1.7404,1.7577,1.7461,1.7471,1.7478,1.7873,1.7878,1.7883,0,0,0,0,0,0,1.6818,1.6848,1.7103,1.699,1.7022,1.7088,1.7157,1.7166,1.7211,1.7286,1.7298,1.7228,1.7363,1.7388,1.752,1.7583,1.7476,1.7486,1.7868,1.7875,1.7881,1.7924,0,0,0,0,0,0,1.6808,1.6845,1.6899,1.6991,1.7028,1.7216,1.7161,1.7172,1.7229,1.7226,1.7321,1.7334,1.7362,1.7503,1.753,1.7596,1.7495,1.7863,1.7871,1.7879,1.7917,1.7931,1.7943,0,0,0,0,0,1.6795,1.6905,1.6902,1.6933,1.7097,1.7219,1.7241,1.7271,1.7235,1.729,1.7338,1.733,1.7572,1.7517,1.7547,1.7617,1.7859,1.7869,1.7878,1.7912,1.7929,1.7943,0,0,0,0,0,0,1.682,1.6917,1.6915,1.7057,1.713,1.7218,1.7289,1.7288,1.7373,1.7366,1.7401,1.7423,1.7554,1.7599,1.7536,1.7761,1.7711,1.7727,1.7726,1.7743,1.7755,1.7741,1.7504,0,0,0,0,0,1.6841,1.6932,1.7013,1.7131,1.7167,1.7222,1.7276,1.7293,1.737,1.7401,1.7459,1.7535,1.7627,1.7688,1.7778,1.7925,1.7945,1.7988,1.8001,1.8011,1.8024,1.8104,1.8124,1.7914,1.7914,1.7914,0,0,1.6888,1.6952,1.7007,1.7137,1.7195,1.7289,1.7248,1.7348,1.7418,1.7417,1.7543,1.7589,1.7676,1.7815,1.788,1.7857,1.8087,1.8023,1.8031,1.8038,1.8116,1.8136,1.8153,1.7921,1.792,1.7919,0,0,1.7019,1.7077,1.7181,1.724,1.7329,1.7365,1.739,1.7479,1.7508,1.7636,1.7637,1.7721,1.7881,1.7942,1.7994,1.815,1.8145,1.8178,1.8245,1.8323,1.8339,1.8354,1.8408,1.8428,1.8191,1.8191,1.8191,0,1.7065,1.7205,1.7235,1.7336,1.7393,1.7396,1.7502,1.7558,1.7672,1.7712,1.7684,1.7884,1.7943,1.8096,1.8134,1.8177,1.8206,1.8166,1.8334,1.835,1.8364,1.8416,1.8436,1.8195,1.8194,1.8194,1.8194,0,1.7256,1.7354,1.7427,1.7536,1.7602,1.7705,1.7751,1.7814,1.7826,1.7865,1.7995,1.8066,1.817,1.8208,1.8221,1.8364,1.8346,1.8327,1.8277,1.8387,1.8436,1.8456,1.8199,1.8198,1.8197,1.8196,0,0,1.7406,1.7531,1.7557,1.7606,1.7705,1.7781,1.7885,1.7986,1.8039,1.8118,1.8205,1.834,1.8322,1.8382,1.8402,1.847,1.8588,1.8442,1.8445,1.8466,1.8748,1.8761,1.8784,1.8586,1.859,1.8593,1.874,0,1.7546,1.7729,1.7759,1.792,1.801,1.8014,1.8105,1.8175,1.8215,1.8297,1.8341,1.8436,1.8406,1.8442,1.851,1.8559,1.8645,1.8549,1.8667,1.8671,1.8643,1.881,1.8824,1.8959,1.876,1.8763,1.8766,0,1.7733,1.7816,1.7985,1.8071,1.811,1.8191,1.8286,1.8365,1.8445,1.8469,1.8536,1.8548,1.8656,1.8603,1.8752,1.8686,1.8737,1.8768,1.8774,1.8785,1.8724,1.8823,1.9003,1.9022,1.8797,1.8794,1.8792,0,1.7823,1.7978,1.8098,1.8141,1.8245,1.8301,1.8348,1.8424,1.8483,1.8567,1.8605,1.87,1.8752,1.8826,1.8864,1.8822,1.901,1.896,1.9032,1.9031,1.907,1.9067,1.9258,1.9106,1.9106,1.9105,1.9105,0,1.7975,1.8078,1.814,1.8214,1.833,1.8365,1.8479,1.8524,1.8592,1.8675,1.8687,1.8765,1.881,1.8895,1.8926,1.9044,1.9068,1.909,1.9097,1.9088,1.9085,1.912,1.9111,1.9111,1.911,1.9109,1.9108,0,1.8094,1.814,1.8272,1.836,1.8385,1.8466,1.8541,1.8614,1.8654,1.8759,1.8786,1.8848,1.8949,1.8994,1.9119,1.9139,1.9273,1.9274,1.9246,1.9248,1.9316,1.9308,1.9536,1.9567,1.9396,1.9397,1.9399,0,1.8187,1.8266,1.8363,1.8419,1.8466,1.8557,1.8617,1.8656,1.8718,1.8816,1.8876,1.8977,1.9059,1.922,1.9277,1.9372,1.9374,1.9447,1.9388,1.9377,1.9373,1.9367,1.9374,1.9457,1.9459,1.946,1.9461,0,1.8346,1.8365,1.845,1.8545,1.8616,1.8692,1.8766,1.8812,1.8862,1.8932,1.9034,1.9098,1.9225,1.9325,1.9424,1.9472,1.9475,1.948,1.9501,1.9492,1.9471,1.9482,1.9273,1.9474,1.9473,1.9472,1.9471,1.9471,1.8453,1.8524,1.8602,1.8698,1.8758,1.8827,1.8899,1.8948,1.9035,1.914,1.9159,1.9268,1.9347,1.948,1.9532,1.9618,1.96,1.9632,1.9639,1.9646,1.9649,1.9459,1.9637,1.9636,1.9636,1.9636,1.9636,0,1.8611,1.8662,1.875,1.8853,1.8928,1.8926,1.9008,1.9071,1.9167,1.924,1.9321,1.9439,1.9536,1.9601,1.9699,1.9756,1.976,1.978,1.9775,1.9786,1.966,1.9631,1.9775,1.9775,1.9775,1.9775,1.9775,1.9775,1.8702,1.882,1.8849,1.8997,1.9048,1.9155,1.9202,1.9266,1.9325,1.9456,1.9537,1.9578,1.9649,1.9752,1.9841,1.9858,1.9893,1.9914,1.9929,1.981,1.9795,1.9781,1.9753,1.9921,1.9922,2.0048,2.0049,2.005]},{"header":{"parameterUnit":"m.s-1","parameterCategory":1,"la1":30.2991,"la2":30.254,"lo1":-89.0895,"lo2":-89.0444,"dy":0.0017,"dx":0.0017,"nx":28,"ny":28,"refTime":"2024-10-11T03:00:00:Z","depth":0,"parameterNumber":3,"parameterNumberName":"V-component_of_WINDS"},"data":[0,0,0,0,0,0,0,0,0,0,0,0,0,0,0,0,0,0,0,0,0,0,0,0,0,0,0,0,0,0,0,0,0,0,0,0,0,0,0,0,0,0,0,0,0,0,0,0,0,0,0,0,0,0,0,0,0,0,0.8202,0.8201,0,0.819,0.819,0.819,0.8105,0.8103,0.81,0.8098,0.809,0.8091,0.8093,0,0,0,0,0,0,0,0,0,0,0,0,0,0.8148,0.8149,0.8202,0.8201,0.8201,0.819,0.819,0.819,0.8105,0.8103,0.81,0.8098,0.8089,0.8091,0.8093,0,0,0,0,0,0,0,0,0,0,0,0,0,0.8158,0.815,0.8202,0.8157,0.8153,0.819,0.819,0.819,0.8106,0.8102,0.8099,0.8096,0.8088,0.8091,0.8093,0.8173,0,0,0.8101,0.8102,0,0,0,0,0,0,0,0,0.8157,0.816,0.8164,0.8161,0.8156,0.8146,0.8168,0.8184,0.8106,0.8124,0.8098,0.8095,0.8111,0.8111,0.8116,0.8172,0.8172,0.8102,0.8103,0.8104,0.8105,0,0,0,0,0,0,0,0.8157,0.816,0.8197,0.8164,0.8159,0.8138,0.8136,0.8171,0.8135,0.8122,0.8116,0.8116,0.8108,0.8114,0.8116,0.8172,0.8101,0.8104,0.8105,0.8106,0.8287,0.829,0,0,0,0,0,0,0.8162,0.816,0.8198,0.8197,0.8149,0.8141,0.8139,0.8152,0.8135,0.8129,0.8118,0.8112,0.8111,0.8113,0.8115,0.8203,0.8104,0.8107,0.8108,0.8283,0.8287,0.8291,0,0,0,0,0,0,0.8161,0.8166,0.8198,0.8176,0.8179,0.8146,0.8161,0.8154,0.816,0.8132,0.8125,0.8131,0.8109,0.8111,0.8158,0.8202,0.8108,0.811,0.828,0.8285,0.8289,0.8384,0,0,0,0,0,0,0.816,0.8166,0.8197,0.8178,0.818,0.8242,0.8164,0.8156,0.8164,0.8155,0.8142,0.8137,0.8107,0.8154,0.816,0.8204,0.8112,0.8276,0.8282,0.8288,0.8376,0.8391,0.8404,0,0,0,0,0,0.8158,0.8226,0.8199,0.8204,0.8218,0.8245,0.8246,0.8209,0.8168,0.8198,0.8179,0.8137,0.8196,0.816,0.8166,0.8211,0.8273,0.828,0.8287,0.837,0.8388,0.8403,0,0,0,0,0,0,0.8254,0.8223,0.8193,0.8256,0.8253,0.823,0.8267,0.823,0.824,0.8232,0.8186,0.8184,0.8236,0.8228,0.8188,0.8284,0.8227,0.8236,0.8288,0.8305,0.8318,0.8319,0.8114,0,0,0,0,0,0.8282,0.8306,0.8277,0.8336,0.8336,0.8302,0.8312,0.8283,0.8279,0.8278,0.8263,0.8261,0.8278,0.8291,0.8306,0.8374,0.8368,0.8408,0.8421,0.8433,0.8441,0.8472,0.8488,0.8315,0.8315,0.8315,0,0,0.8341,0.8326,0.8345,0.8354,0.8349,0.8374,0.8302,0.8333,0.835,0.8283,0.8325,0.8313,0.8307,0.8364,0.8388,0.8359,0.8487,0.8442,0.8451,0.8453,0.8481,0.8498,0.8513,0.832,0.8319,0.8318,0,0,0.846,0.8453,0.8499,0.8494,0.8485,0.8461,0.8472,0.8453,0.8442,0.8483,0.8432,0.8452,0.8484,0.848,0.8483,0.8595,0.8556,0.8601,0.8673,0.8704,0.8718,0.8729,0.8767,0.8781,0.8609,0.861,0.861,0,0.8535,0.8571,0.8528,0.856,0.8565,0.8502,0.8547,0.8544,0.8542,0.8546,0.8512,0.8547,0.854,0.8592,0.8619,0.8624,0.8633,0.8603,0.8719,0.873,0.8741,0.8776,0.8791,0.8615,0.8615,0.8614,0.8613,0,0.8662,0.8687,0.8725,0.8721,0.8729,0.8769,0.873,0.8743,0.8712,0.8691,0.8731,0.8719,0.8728,0.8738,0.871,0.8785,0.8767,0.8727,0.8669,0.8764,0.8796,0.8809,0.8623,0.8621,0.8619,0.8618,0,0,0.8845,0.8813,0.8827,0.8823,0.8806,0.8825,0.8859,0.8866,0.8877,0.8876,0.8903,0.8928,0.8889,0.8892,0.8862,0.8889,0.8975,0.8845,0.8844,0.8868,0.9054,0.9084,0.91,0.8948,0.895,0.8952,0.9054,0,0.8959,0.9015,0.8975,0.9038,0.9059,0.8997,0.9026,0.9018,0.8998,0.9012,0.899,0.9008,0.8957,0.8957,0.8982,0.896,0.9011,0.8952,0.8971,0.8972,0.8974,0.9117,0.915,0.9246,0.9066,0.9068,0.907,0,0.91,0.9102,0.9167,0.9141,0.9148,0.9176,0.9176,0.9191,0.9179,0.9162,0.9162,0.9123,0.9153,0.9094,0.9133,0.9093,0.9098,0.9088,0.9091,0.9091,0.9027,0.912,0.9277,0.9291,0.909,0.9088,0.9087,0,0.9224,0.9243,0.9283,0.9282,0.9254,0.9273,0.9263,0.9248,0.9253,0.9253,0.9255,0.926,0.9262,0.9265,0.9227,0.9189,0.927,0.9209,0.9255,0.9256,0.9276,0.9275,0.9434,0.9281,0.928,0.928,0.928,0,0.9355,0.9397,0.9338,0.9363,0.9406,0.9358,0.9402,0.9385,0.9371,0.939,0.9337,0.9356,0.9304,0.9317,0.9287,0.9322,0.9324,0.931,0.9301,0.9314,0.9316,0.9317,0.9309,0.9284,0.9283,0.9282,0.9282,0,0.9503,0.9465,0.9504,0.9472,0.9465,0.9499,0.9471,0.9491,0.9466,0.949,0.9493,0.9453,0.9465,0.9426,0.9433,0.9412,0.9463,0.9444,0.9466,0.946,0.9508,0.9503,0.9673,0.9691,0.9527,0.9529,0.953,0,0.9589,0.9618,0.9589,0.9596,0.9588,0.9602,0.9606,0.9558,0.9564,0.955,0.9571,0.9578,0.9581,0.9602,0.9573,0.9576,0.9556,0.9615,0.9557,0.9567,0.9555,0.9553,0.9554,0.9628,0.963,0.9631,0.9633,0,0.9744,0.9723,0.973,0.9729,0.9734,0.9732,0.9726,0.9736,0.9684,0.9693,0.9703,0.9705,0.9708,0.9715,0.9711,0.9698,0.9656,0.9651,0.9661,0.9675,0.9686,0.9678,0.9498,0.9648,0.9646,0.9645,0.9644,0.9644,0.9862,0.9884,0.9865,0.9873,0.9863,0.9857,0.9873,0.9848,0.9856,0.9854,0.9825,0.984,0.9823,0.9813,0.9804,0.9813,0.9786,0.9802,0.9806,0.981,0.9817,0.9684,0.9813,0.9812,0.9812,0.9811,0.9811,0,1.0013,0.9997,1.0005,0.9996,1.0002,0.9959,0.9949,0.9956,0.997,0.9957,0.996,0.9969,0.9973,0.9943,0.9943,0.9956,0.9936,0.9958,0.9956,0.9953,0.9843,0.9833,0.9973,0.9973,0.9973,0.9973,0.9973,0.9973,1.0093,1.0126,1.0102,1.0128,1.0111,1.0124,1.0122,1.0115,1.0104,1.0116,1.0119,1.0098,1.0077,1.0074,1.0075,1.0065,1.0067,1.0095,1.0079,0.9977,0.9961,0.9946,0.9937,1.0096,1.0096,1.0187,1.0188,1.0189]}]]